{"data":{"norad_id":67328,"intl_designator":"2026-002Z","name":"STARLINK-36489","alt_names":[],"object_type":"PAYLOAD","status":"ACTIVE","operator":null,"country":"US","launch_date":"2026-01-04","launch_site_code":"AFETR","launch_vehicle":null,"mission":null,"orbit_class":"UNKNOWN","rcs_meters":null,"size_class":null,"mass_kg":null,"dimensions":null,"purposes":["comms"],"wikipedia_slug":null,"has_3d_model":false,"image_url":null,"decayed_at":null,"tle_current":{"epoch":"2026-09-19T11:23:16.028448Z","epoch_age_seconds":164045,"freshness":"FRESH","line1":"1 67328U 26002Z   26262.47449107  .00011774  00000+0  43649-3 0  9998","line2":"2 67328  43.0056 311.0640 0002845 276.1093  83.9434 15.27595878 40875","mean_motion":15.27595878,"eccentricity":0.0002845,"inclination_deg":43.0056,"raan_deg":311.064,"arg_perigee_deg":276.1093,"mean_anomaly_deg":83.9434,"bstar":0.00043649,"rev_number":4087,"period_min":94.265768894671,"perigee_km":481.04955808935,"apogee_km":484.95354592544,"semimajor_km":6861.1385520074,"source":"CELESTRAK","updated_at":"2026-09-20T09:00:43.508564Z"}}}